RH
88 82 83 80 85 97 97 74 63 60 62 69 79 80 78 78 80 79 91 93 96 96 97 93 90 87 86 85 82 90 87 87 85
84 82 82 79 78 84 73 65 63 64 62 81 78 80 79 76 76 85 89 88 94 94 92 84 86 84 83 96 94 92 82 87 90
87 81 81 77 70 67 64 59 60 64 78 80 82 82 76 72 78 86 92 90 91 90 91 81 86 85 89 99 94 94 96 95 88
87 81 79 73 74 73 62 51 49 56 70 78 78 84 78 74 80 88 91 88 90 92 91 82 83 89 91 98 95 89 86 89 88
88 84 77 68 71 73 68 58 47 44 51 66 70 82 85 74 80 90 91 88 92 94 91 84 88 94 98 96 92 86 82 85 86
88 84 75 71 68 73 71 61 54 45 39 47 66 76 84 72 71 84 90 89 91 91 89 88 90 92 97 95 91 86 86 92 85
85 79 77 73 71 66 70 62 55 44 37 38 58 53 72 71 72 78 86 93 89 92 91 89 94 94 98 97 94 89 89 85 83
82 78 77 77 71 69 63 65 59 50 41 34 48 50 59 61 70 73 79 88 89 93 90 93 92 96 98 98 93 91 86 85 89
82 78 71 73 74 68 56 59 62 60 52 57 54 49 51 53 63 70 73 84 93 92 90 94 93 98 89 98 87 92 87 91 85
78 76 72 75 73 70 58 52 62 67 60 56 55 55 52 55 63 67 75 82 87 92 90 95 96 99 98 96 93 92 89 89 88
75 73 75 68 64 70 55 48 61 65 59 56 54 58 54 66 65 65 83 86 86 92 88 95 98 98 96 94 94 91 90 88 88
74 76 75 62 65 72 58 55 63 58 56 53 54 57 69 70 71 70 89 88 87 86 89 94 98 98 80 94 94 93 89 88 88
63 67 68 61 61 64 60 64 61 56 55 54 56 58 66 80 80 67 90 87 86 84 88 89 94 97 85 94 92 92 92 90 88
64 64 69 62 64 59 58 58 57 57 56 56 56 60 69 72 82 80 90 88 86 85 84 91 94 93 94 90 91 91 92 91 90
64 63 70 72 70 60 56 55 59 57 57 58 59 67 79 79 87 90 92 87 81 87 88 93 96 92 91 90 93 91 92 92 91
62 66 69 72 76 64 61 55 59 61 56 62 66 71 88 91 89 93 94 89 93 88 82 92 98 90 86 90 88 92 93 92 92
64 68 71 80 81 68 64 57 61 67 59 69 80 95 85 87 92 96 95 81 87 87 80 85 97 88 88 84 81 90 94 93 92
64 68 70 79 80 74 68 63 59 72 70 62 68 96 92 91 88 97 94 92 84 83 79 84 92 90 89 85 84 85 87 94 91
68 70 75 78 82 80 73 66 58 68 80 71 63 60 68 88 97 97 94 97 91 86 83 83 84 86 91 86 83 82 79 93 92
77 76 80 78 80 82 78 72 63 66 80 76 69 67 67 67 88 96 96 97 94 89 85 83 79 83 87 85 84 80 82 74 93
Wind_Speed
17 18 18 17 16 17 15 13 15 18 17 16 15 17 17 20 19 18 22 20 19 19 20 20 19 19 19 19 24 24 25 24 23
18 18 19 17 16 14 14 14 14 16 17 15 15 15 16 17 16 21 21 18 18 19 19 18 17 18 20 20 24 23 24 24 24
19 19 18 16 14 14 13 13 14 15 16 15 15 14 17 16 18 20 20 18 17 17 18 17 19 21 18 21 24 22 22 23 22
21 19 18 15 14 14 14 13 13 14 15 14 13 14 16 16 19 20 20 17 16 17 19 18 17 17 19 24 22 21 20 20 20
20 19 17 15 14 14 13 12 12 13 15 15 12 14 15 18 17 20 20 17 16 17 17 16 17 17 20 22 20 21 20 20 20
20 19 15 15 14 14 14 13 12 11 14 15 16 13 15 13 13 16 18 16 16 16 16 17 17 16 21 22 20 19 19 20 20
19 16 16 16 15 13 14 14 11 9 11 16 18 12 15 10 14 14 16 16 15 15 16 16 17 16 22 21 19 17 18 19 18
20 19 19 19 17 15 14 15 12 9 10 16 16 15 14 11 12 12 14 15 14 15 16 18 16 22 20 19 18 16 16 17 18
23 24 22 21 18 15 15 17 16 13 13 12 14 14 13 14 13 14 14 16 16 16 16 17 16 20 16 16 14 15 16 16 17
24 24 23 22 18 15 18 19 19 17 12 10 10 7 16 19 18 17 18 17 17 17 18 17 17 20 19 15 15 14 15 15 16
26 26 27 24 19 16 18 21 17 12 18 12 11 8 12 21 18 17 22 21 18 18 18 17 21 20 17 15 14 15 15 15 15
26 27 29 25 23 22 18 22 17 16 15 15 12 14 12 13 12 19 24 22 18 16 19 19 20 20 14 14 14 14 15 15 15
30 27 28 29 26 26 23 21 21 20 17 17 15 15 13 12 13 19 26 23 21 17 19 19 22 19 15 15 14 14 14 15 15
27 30 29 30 31 26 26 21 24 21 19 17 16 15 13 9 16 22 25 24 20 18 19 19 23 20 18 17 15 15 14 15 14
28 32 33 32 34 31 29 24 23 23 22 20 17 13 9 9 14 24 26 25 21 20 20 20 23 20 18 19 16 16 15 15 15
34 34 35 35 37 33 32 30 25 23 25 23 15 12 11 13 14 22 25 23 21 19 19 22 26 22 18 19 16 17 16 16 15
38 38 38 38 38 35 34 35 29 21 29 20 14 2 4 10 10 19 23 22 22 18 19 21 27 24 22 19 15 16 17 16 15
42 41 40 40 38 40 37 37 36 22 29 28 11 3 4 5 10 13 21 21 23 20 19 22 24 23 23 20 18 16 17 17 16
43 42 41 40 38 37 39 39 37 31 26 27 25 11 10 3 3 13 19 20 24 26 23 23 22 23 25 23 22 18 17 18 17
41 40 42 43 40 40 39 38 40 40 31 28 27 18 13 11 4 4 12 19 22 23 25 26 22 24 26 25 23 23 22 20 20
Wind_Direction
151 150 141 132 128 121 119 126 127 131 129 118 104 104 121 133 123 119 115 108 105 101 98 96 93 94 99 102 99 95 97 97 97
163 155 148 140 135 130 130 129 129 129 131 119 109 114 125 124 120 127 121 115 107 102 99 97 97 101 105 106 99 96 98 97 94
166 155 152 143 138 136 138 141 140 135 133 121 124 119 125 119 122 127 119 113 107 106 106 100 101 109 109 111 103 97 94 94 95
167 159 152 146 142 141 144 145 150 153 145 132 120 116 124 126 132 128 121 115 110 111 111 106 110 114 118 102 100 99 100 98 99
167 159 155 150 149 151 151 149 153 161 164 150 127 128 128 125 130 130 124 119 117 116 114 113 119 118 112 105 104 101 101 102 103
168 165 163 155 149 154 158 155 152 163 172 166 139 134 135 134 131 136 134 125 122 122 121 122 126 129 120 110 107 104 103 104 104
177 177 171 164 155 162 166 160 155 159 173 174 161 131 147 140 142 139 141 131 128 129 127 131 138 131 122 115 110 107 109 109 107
184 178 175 169 164 168 170 165 161 154 173 173 165 149 151 165 158 149 148 136 135 133 130 138 134 133 121 117 112 115 113 114 113
183 183 184 180 174 177 179 176 171 154 140 150 155 159 167 180 177 170 161 146 145 139 138 145 143 132 127 122 116 118 122 119 116
188 187 188 184 182 184 184 183 184 187 178 170 181 207 190 188 181 174 166 160 159 146 145 150 150 135 128 126 128 128 128 125 123
188 191 192 190 201 189 190 184 187 202 180 186 190 184 177 172 171 174 171 167 162 154 154 156 150 139 131 134 133 133 135 132 129
186 195 193 196 197 195 186 187 192 185 187 184 189 175 166 171 166 173 174 170 166 162 162 163 155 149 141 145 145 142 141 140 137
199 200 202 196 202 198 188 200 192 185 176 180 182 190 194 172 182 179 173 169 169 172 176 176 166 157 151 151 153 149 151 148 147
205 201 203 196 201 195 191 195 189 185 180 182 185 177 189 184 189 185 180 171 172 178 180 184 171 162 155 153 157 157 158 157 155
210 201 200 195 199 195 191 193 185 189 178 176 176 163 177 181 189 185 180 177 178 184 185 182 175 168 165 158 161 165 167 166 162
202 203 203 201 202 191 187 192 191 190 191 172 169 156 146 178 185 174 178 180 183 189 190 192 182 176 177 172 167 171 173 173 172
202 206 204 200 200 195 192 191 190 190 193 168 154 123 189 181 172 200 192 187 189 195 196 193 187 182 184 187 182 178 179 179 181
205 208 208 205 205 198 195 194 195 190 188 192 167 138 207 148 196 185 200 195 195 195 194 197 197 198 195 195 197 195 188 187 189
206 209 208 209 209 200 198 198 201 195 187 187 196 195 154 163 169 205 204 198 197 196 195 198 204 210 210 210 206 208 207 196 197
201 204 208 207 204 203 202 199 200 201 194 192 190 191 192 183 147 174 195 210 210 203 204 202 208 209 215 213 214 214 221 213 204